Weather Service Report


442 
ASUS44 KEWX 250611
RWRTX 
SOUTH TEXAS REGIONAL WEATHER ROUNDUP
NATIONAL WEATHER SERVICE AUSTIN/SAN ANTONIO TX
100 AM CDT SUN JUN 25 2017

NOTE: "FAIR" INDICATED FEW OR NO CLOUDS BELOW 12,000 FEET WITH NO
SIGNIFICANT WEATHER AND/OR OBSTRUCTIONS TO VISIBILITY.

* - THESE STATIONS ARE NOT NWS OR FAA STATIONS...AND ARE NOT SUBJECT
    TO NWS AND FAA QUALITY CONTROL.
 
TXZ171-172-183>190-250700-
TEXAS HILL COUNTRY AND EDWARDS PLATEAU
  
CITY           SKY/WX    TMP DP  RH WIND       PRES   REMARKS
JUNCTION       MOCLDY    74  67  78 E7        30.19S                  
6HR MIN TEMP:  74; 6HR MAX TEMP:  86;                                

*LLANO         CLEAR     73  68  83 NE5       30.21R                  
BURNET         CLEAR     71  67  87 NE6       30.19S                  
6HR MIN TEMP:  71; 6HR MAX TEMP:  83;                                

*HORSESHOE BAY CLEAR     71  68  92 CALM      30.17S                  
6HR MIN TEMP:  71; 6HR MAX TEMP:  85;                                

*KERRVILLE     CLOUDY    72  67  84 CALM      30.19S                  
6HR MIN TEMP:  72; 6HR MAX TEMP:  83;                                

*FREDERICKSBRG CLEAR     69  64  84 CALM      30.19S                  
6HR MIN TEMP:  69; 6HR MAX TEMP:  82;                                

*ROCKSPRINGS   MOCLDY    73  66  78 SE8       30.22S                  
*BOERNE STAGE  CLEAR     70  64  83 CALM      30.18F                  
*CASTROVILLE   MOCLDY    76  66  71 E5        30.15F                  
HONDO          CLOUDY    77  68  73 E7        30.14F                  
6HR MIN TEMP:  77; 6HR MAX TEMP:  83;                                

*UVALDE        CLOUDY    75  69  82 CALM      30.14S                  
6HR MIN TEMP:  74; 6HR MAX TEMP:  82;                                

DEL RIO        CLEAR     77  68  73 SE8       30.12R                  
6HR MIN TEMP:  77; 6HR MAX TEMP:  89;                                

LAUGHLIN AFB   PTCLDY    76  68  75 SE10      30.13R                  
6HR MIN TEMP:  76; 6HR MAX TEMP:  89;                                

CARRIZO SPRGS  MOCLDY    77  68  73 E7        30.09F                  
*EAGLE PASS      N/A    N/A N/A N/A MISG        N/A                   
$$

TXZ173-191>194-202-209-217>225-228-250700-
CENTRAL AND SOUTH CENTRAL TEXAS
  
CITY           SKY/WX    TMP DP  RH WIND       PRES   REMARKS
GEORGETOWN     PTCLDY    73  66  78 CALM      30.15S                  
6HR MIN TEMP:  73; 6HR MAX TEMP:  84;                                

AUSTIN/BERGSTM PTCLDY    77  70  79 NE3       30.13F                  
6HR MIN TEMP:  73; 6HR MAX TEMP:  82;                                

AUSTIN/MABRY   PTCLDY    76  70  82 CALM      30.15S                  
6HR MIN TEMP:  76; 6HR MAX TEMP:  83;                                

*AUSTIN/EXEC     N/A     73  73 100 CALM      30.14F                  
*LAGO VISTA    CLEAR     73  70  89 NE7       30.17S                  
6HR MIN TEMP:  73; 6HR MAX TEMP:  84;                                

SAN MARCOS     PTCLDY    72  68  88 CALM      30.15S                  
6HR MIN TEMP:  72; 6HR MAX TEMP:  81;                                

NEW BRAUNFELS  CLEAR     71  68  90 N5        30.12F                  
6HR MIN TEMP:  70; 6HR MAX TEMP:  82;                                

RANDOLPH AFB   PTCLDY    73  72  98 NE5       30.13F                  
6HR MIN TEMP:  73; 6HR MAX TEMP:  82;                                

PT SAN ANTONIO CLEAR     75  69  80 NE8       30.12S                  
6HR MIN TEMP:  75; 6HR MAX TEMP:  84;                                

SAN ANTONIO    PTCLDY    75  68  78 NE6       30.14F                  
6HR MIN TEMP:  75; 6HR MAX TEMP:  83;                                

STINSON FIELD  MOCLDY    76  68  76 NE6       30.11F                  
6HR MIN TEMP:  76; 6HR MAX TEMP:  85;                                

*LA GRANGE     CLOUDY    75  74  96 CALM      30.10S                  
6HR MIN TEMP:  75; 6HR MAX TEMP:  80;                                

*GIDDINGS      CLOUDY    72  69  92 CALM      30.14R                  
6HR MIN TEMP:  71; 6HR MAX TEMP:  81;                                

*GONZALES      CLOUDY    74  74 100 NE3       30.11F                  
6HR MIN TEMP:  73; 6HR MAX TEMP:  81;                                

$$

TXZ163>164-176>182-195>201-210>213-226-227-235-250700-
SOUTHEAST TEXAS
  
CITY           SKY/WX    TMP DP  RH WIND       PRES   REMARKS
COLLEGE STN    CLOUDY    77  73  87 NE3       30.12S                  
6HR MIN TEMP:  77; 6HR MAX TEMP:  82;                                

*BRYAN         CLOUDY    75  75 100 CALM      30.14S                  
6HR MIN TEMP:  75; 6HR MAX TEMP:  82;                                

*CALDWELL      NOT AVBL                                               
*CROCKETT      CLOUDY    75  73  94 CALM      30.16F                  
*BRENHAM       CLOUDY    76  75  95 CALM      30.13S                  
6HR MIN TEMP:  76; 6HR MAX TEMP:  82; 6HR PCP:  0.29;                

HUNTSVILLE     CLOUDY    76  71  85 CALM      30.13R                  
6HR MIN TEMP:  76; 6HR MAX TEMP:  81;                                

CONROE         CLOUDY    75  74  96 CALM      30.11F FOG              
6HR MIN TEMP:  75; 6HR MAX TEMP:  82;                                

HOUSTON BUSH   MOCLDY    78  74  87 N3        30.10S                  
6HR MIN TEMP:  77; 6HR MAX TEMP:  84;                                

HOUSTON HOBBY  CLOUDY    79  75  87 CALM      30.09S                  
6HR MIN TEMP:  78; 6HR MAX TEMP:  85; 6HR PCP:  0.01;                

*HOUSTON SW AP CLOUDY    76  73  90 CALM      30.10F                  
6HR MIN TEMP:  74; 6HR MAX TEMP:  82; 6HR PCP:  0.01;                

PEARLAND       CLOUDY    79  75  87 SE3       30.10F                  
6HR MIN TEMP:  79; 6HR MAX TEMP:  83; 6HR PCP:  0.23;                

HOUSTON HOOKS  CLOUDY    77  75  93 CALM      30.11S                  
6HR MIN TEMP:  77; 6HR MAX TEMP:  82;                                

ELLINGTON FLD  MOCLDY    79  75  89 CALM      30.11F                  
SUGAR LAND     CLOUDY    80  75  84 SE5       30.10R                  
6HR MIN TEMP:  77; 6HR MAX TEMP:  85;                                

*HOUSTON EXEC  CLOUDY    73  73 100 N5        30.12S FOG              
*CLEVELAND MUN CLOUDY    75  74  96 CALM      30.12S FOG              
6HR MIN TEMP:  75; 6HR MAX TEMP:  83; 6HR PCP:  0.05;                

*WHARTON       PTCLDY    76  73  90 N3        30.11S                  
6HR MIN TEMP:  75; 6HR MAX TEMP:  83;                                

*COLUMBUS      FAIR      75  73  93 CALM      30.12S                  
6HR MIN TEMP:  74; 6HR MAX TEMP:  79;                                

*EAGLE LAKE    CLOUDY    76  76 100 N3        30.10F                  
6HR MIN TEMP:  76; 6HR MAX TEMP:  80;                                

$$

TXZ214>216-236>238-250700-
THE UPPER TEXAS COAST
  
CITY           SKY/WX    TMP DP  RH WIND       PRES   REMARKS
*ORANGE        CLEAR     77  76  95 CALM      30.12R                  
6HR MIN TEMP:  77; 6HR MAX TEMP:  85;                                

PORT ARTHUR      N/A    N/A N/A N/A MISG      30.09S                  
GALVESTON      PTCLDY    82  78  88 E5        30.10S HX  91           
6HR MIN TEMP:  82; 6HR MAX TEMP:  85;                                

ANGLETON       PTCLDY    78  77  96 N5        30.09S                  
6HR MIN TEMP:  78; 6HR MAX TEMP:  85; 6HR PCP:  0.01;                

*BAY CITY      MOCLDY    78  76  94 N5        30.10R                  
PALACIOS       TSTM      71  71 100 E12       30.10F FOG              
6HR MIN TEMP:  71; 6HR MAX TEMP:  83; 6HR PCP:  2.82;                

$$

TXZ229>234-239>247-250700-
TEXAS COASTAL BEND AND RIO GRANDE PLAINS
  
CITY           SKY/WX    TMP DP  RH WIND       PRES   REMARKS
VICTORIA       CLOUDY    77  73  87 SE9       30.10F                  
6HR MIN TEMP:  76; 6HR MAX TEMP:  85;                                

*BEEVILLE      LGT RAIN  77  77 100 E7        30.09S                  
6HR MIN TEMP:  76; 6HR MAX TEMP:  83;                                

ROCKPORT       MOCLDY    80  74  81 NE8       30.06F                  
6HR MIN TEMP:  80; 6HR MAX TEMP:  85; 6HR PCP: TRACE;                

*PORT ARANSAS  PTCLDY    83  75  78 E8        30.06S THUNDER HX  90   
6HR MIN TEMP:  83; 6HR MAX TEMP:  85;                                

*PORT LAVACA   NOT AVBL                                               
*INGLESIDE     MOCLDY    82  77  85 MISG      30.06F THUNDER          
CORPUS CHRISTI MOCLDY    80  76  87 CALM      30.06S                  
6HR MIN TEMP:  80; 6HR MAX TEMP:  87;                                

CORPUS NAS     CLOUDY    83  78  85 S3        30.06S HX  93           
6HR MIN TEMP:  82; 6HR MAX TEMP:  86;                                

*ROBSTOWN      MOCLDY    80  80 100 CALM      30.07S                  
6HR MIN TEMP:  80; 6HR MAX TEMP:  85;                                

ALICE          PTCLDY    76  75  97 NE7       30.06F                  
6HR MIN TEMP:  76; 6HR MAX TEMP:  83; 6HR PCP: TRACE;                

KINGSVILLE NAS PTCLDY    78  78 100 NE6       30.05F                  
6HR MIN TEMP:  78; 6HR MAX TEMP:  83;                                

COTULLA        CLOUDY    78  69  73 E10       30.09F                  
6HR MIN TEMP:  78; 6HR MAX TEMP:  85;                                

*FAITH RANCH   CLOUDY    79  68  69 E12       30.08F                  
LAREDO         MOCLDY    79  72  79 E9        30.06F                  
6HR MIN TEMP:  79; 6HR MAX TEMP:  84;                                

$$

TXZ248>255-250700-
DEEP SOUTH TEXAS
  
CITY           SKY/WX    TMP DP  RH WIND       PRES   REMARKS
BROWNSVILLE    PTCLDY    82  79  90 NE3       30.03R HX  92           
6HR MIN TEMP:  81; 6HR MAX TEMP:  88;                                

PORT ISABEL    MOCLDY    84  79  85 SE7       30.02S HX  96           
6HR MIN TEMP:  83; 6HR MAX TEMP:  88;                                

*SOUTH PADRE   NOT AVBL                                               
HARLINGEN


543 
ASUS44 KEWX 250611
RWREWX
SOUTH TEXAS REGIONAL WEATHER ROUNDUP
NATIONAL WEATHER SERVICE AUSTIN/SAN ANTONIO TX
100 AM CDT SUN JUN 25 2017

NOTE: "FAIR" INDICATED FEW OR NO CLOUDS BELOW 12,000 FEET WITH NO
SIGNIFICANT WEATHER AND/OR OBSTRUCTIONS TO VISIBILITY.

* - THESE STATIONS ARE NOT NWS OR FAA STATIONS...AND ARE NOT SUBJECT
    TO NWS AND FAA QUALITY CONTROL.
 
TXZ171-172-183>190-250700-
TEXAS HILL COUNTRY AND EDWARDS PLATEAU
  
CITY           SKY/WX    TMP DP  RH WIND       PRES   REMARKS
JUNCTION       MOCLDY    74  67  78 E7        30.19S                  
6HR MIN TEMP:  74; 6HR MAX TEMP:  86;                                

*LLANO         CLEAR     73  68  83 NE5       30.21R                  
BURNET         CLEAR     71  67  87 NE6       30.19S                  
6HR MIN TEMP:  71; 6HR MAX TEMP:  83;                                

*HORSESHOE BAY CLEAR     71  68  92 CALM      30.17S                  
6HR MIN TEMP:  71; 6HR MAX TEMP:  85;                                

*KERRVILLE     CLOUDY    72  67  84 CALM      30.19S                  
6HR MIN TEMP:  72; 6HR MAX TEMP:  83;                                

*FREDERICKSBRG CLEAR     69  64  84 CALM      30.19S                  
6HR MIN TEMP:  69; 6HR MAX TEMP:  82;                                

*ROCKSPRINGS   MOCLDY    73  66  78 SE8       30.22S                  
*BOERNE STAGE  CLEAR     70  64  83 CALM      30.18F                  
*CASTROVILLE   MOCLDY    76  66  71 E5        30.15F                  
HONDO          CLOUDY    77  68  73 E7        30.14F                  
6HR MIN TEMP:  77; 6HR MAX TEMP:  83;                                

*UVALDE        CLOUDY    75  69  82 CALM      30.14S                  
6HR MIN TEMP:  74; 6HR MAX TEMP:  82;                                

DEL RIO        CLEAR     77  68  73 SE8       30.12R                  
6HR MIN TEMP:  77; 6HR MAX TEMP:  89;                                

LAUGHLIN AFB   PTCLDY    76  68  75 SE10      30.13R                  
6HR MIN TEMP:  76; 6HR MAX TEMP:  89;                                

CARRIZO SPRGS  MOCLDY    77  68  73 E7        30.09F                  
*EAGLE PASS      N/A    N/A N/A N/A MISG        N/A                   
$$

TXZ173-191>194-202-209-217>225-228-250700-
CENTRAL AND SOUTH CENTRAL TEXAS
  
CITY           SKY/WX    TMP DP  RH WIND       PRES   REMARKS
GEORGETOWN     PTCLDY    73  66  78 CALM      30.15S                  
6HR MIN TEMP:  73; 6HR MAX TEMP:  84;                                

AUSTIN/BERGSTM PTCLDY    77  70  79 NE3       30.13F                  
6HR MIN TEMP:  73; 6HR MAX TEMP:  82;                                

AUSTIN/MABRY   PTCLDY    76  70  82 CALM      30.15S                  
6HR MIN TEMP:  76; 6HR MAX TEMP:  83;                                

*AUSTIN/EXEC     N/A     73  73 100 CALM      30.14F                  
*LAGO VISTA    CLEAR     73  70  89 NE7       30.17S                  
6HR MIN TEMP:  73; 6HR MAX TEMP:  84;                                

SAN MARCOS     PTCLDY    72  68  88 CALM      30.15S                  
6HR MIN TEMP:  72; 6HR MAX TEMP:  81;                                

NEW BRAUNFELS  CLEAR     71  68  90 N5        30.12F                  
6HR MIN TEMP:  70; 6HR MAX TEMP:  82;                                

RANDOLPH AFB   PTCLDY    73  72  98 NE5       30.13F                  
6HR MIN TEMP:  73; 6HR MAX TEMP:  82;                                

PT SAN ANTONIO CLEAR     75  69  80 NE8       30.12S                  
6HR MIN TEMP:  75; 6HR MAX TEMP:  84;                                

SAN ANTONIO    PTCLDY    75  68  78 NE6       30.14F                  
6HR MIN TEMP:  75; 6HR MAX TEMP:  83;                                

STINSON FIELD  MOCLDY    76  68  76 NE6       30.11F                  
6HR MIN TEMP:  76; 6HR MAX TEMP:  85;                                

*LA GRANGE     CLOUDY    75  74  96 CALM      30.10S                  
6HR MIN TEMP:  75; 6HR MAX TEMP:  80;                                

*GIDDINGS      CLOUDY    72  69  92 CALM      30.14R                  
6HR MIN TEMP:  71; 6HR MAX TEMP:  81;                                

*GONZALES      CLOUDY    74  74 100 NE3       30.11F                  
6HR MIN TEMP:  73; 6HR MAX TEMP:  81;                                

$$

TXZ163>164-176>182-195>201-210>213-226-227-235-250700-
SOUTHEAST TEXAS
  
CITY           SKY/WX    TMP DP  RH WIND       PRES   REMARKS
COLLEGE STN    CLOUDY    77  73  87 NE3       30.12S                  
6HR MIN TEMP:  77; 6HR MAX TEMP:  82;                                

*BRYAN         CLOUDY    75  75 100 CALM      30.14S                  
6HR MIN TEMP:  75; 6HR MAX TEMP:  82;                                

*CALDWELL      NOT AVBL                                               
*CROCKETT      CLOUDY    75  73  94 CALM      30.16F                  
*BRENHAM       CLOUDY    76  75  95 CALM      30.13S                  
6HR MIN TEMP:  76; 6HR MAX TEMP:  82; 6HR PCP:  0.29;                

HUNTSVILLE     CLOUDY    76  71  85 CALM      30.13R                  
6HR MIN TEMP:  76; 6HR MAX TEMP:  81;                                

CONROE         CLOUDY    75  74  96 CALM      30.11F FOG              
6HR MIN TEMP:  75; 6HR MAX TEMP:  82;                                

HOUSTON BUSH   MOCLDY    78  74  87 N3        30.10S                  
6HR MIN TEMP:  77; 6HR MAX TEMP:  84;                                

HOUSTON HOBBY  CLOUDY    79  75  87 CALM      30.09S                  
6HR MIN TEMP:  78; 6HR MAX TEMP:  85; 6HR PCP:  0.01;                

*HOUSTON SW AP CLOUDY    76  73  90 CALM      30.10F                  
6HR MIN TEMP:  74; 6HR MAX TEMP:  82; 6HR PCP:  0.01;                

PEARLAND       CLOUDY    79  75  87 SE3       30.10F                  
6HR MIN TEMP:  79; 6HR MAX TEMP:  83; 6HR PCP:  0.23;                

HOUSTON HOOKS  CLOUDY    77  75  93 CALM      30.11S                  
6HR MIN TEMP:  77; 6HR MAX TEMP:  82;                                

ELLINGTON FLD  MOCLDY    79  75  89 CALM      30.11F                  
SUGAR LAND     CLOUDY    80  75  84 SE5       30.10R                  
6HR MIN TEMP:  77; 6HR MAX TEMP:  85;                                

*HOUSTON EXEC  CLOUDY    73  73 100 N5        30.12S FOG              
*CLEVELAND MUN CLOUDY    75  74  96 CALM      30.12S FOG              
6HR MIN TEMP:  75; 6HR MAX TEMP:  83; 6HR PCP:  0.05;                

*WHARTON       PTCLDY    76  73  90 N3        30.11S                  
6HR MIN TEMP:  75; 6HR MAX TEMP:  83;                                

*COLUMBUS      FAIR      75  73  93 CALM      30.12S                  
6HR MIN TEMP:  74; 6HR MAX TEMP:  79;                                

*EAGLE LAKE    CLOUDY    76  76 100 N3        30.10F                  
6HR MIN TEMP:  76; 6HR MAX TEMP:  80;                                

$$

TXZ214>216-236>238-250700-
THE UPPER TEXAS COAST
  
CITY           SKY/WX    TMP DP  RH WIND       PRES   REMARKS
*ORANGE        CLEAR     77  76  95 CALM      30.12R                  
6HR MIN TEMP:  77; 6HR MAX TEMP:  85;                                

PORT ARTHUR      N/A    N/A N/A N/A MISG      30.09S                  
GALVESTON      PTCLDY    82  78  88 E5        30.10S HX  91           
6HR MIN TEMP:  82; 6HR MAX TEMP:  85;                                

ANGLETON       PTCLDY    78  77  96 N5        30.09S                  
6HR MIN TEMP:  78; 6HR MAX TEMP:  85; 6HR PCP:  0.01;                

*BAY CITY      MOCLDY    78  76  94 N5        30.10R                  
PALACIOS       TSTM      71  71 100 E12       30.10F FOG              
6HR MIN TEMP:  71; 6HR MAX TEMP:  83; 6HR PCP:  2.82;                

$$

TXZ229>234-239>247-250700-
TEXAS COASTAL BEND AND RIO GRANDE PLAINS
  
CITY           SKY/WX    TMP DP  RH WIND       PRES   REMARKS
VICTORIA       CLOUDY    77  73  87 SE9       30.10F                  
6HR MIN TEMP:  76; 6HR MAX TEMP:  85;                                

*BEEVILLE      LGT RAIN  77  77 100 E7        30.09S                  
6HR MIN TEMP:  76; 6HR MAX TEMP:  83;                                

ROCKPORT       MOCLDY    80  74  81 NE8       30.06F                  
6HR MIN TEMP:  80; 6HR MAX TEMP:  85; 6HR PCP: TRACE;                

*PORT ARANSAS  PTCLDY    83  75  78 E8        30.06S THUNDER HX  90   
6HR MIN TEMP:  83; 6HR MAX TEMP:  85;                                

*PORT LAVACA   NOT AVBL                                               
*INGLESIDE     MOCLDY    82  77  85 MISG      30.06F THUNDER          
CORPUS CHRISTI MOCLDY    80  76  87 CALM      30.06S                  
6HR MIN TEMP:  80; 6HR MAX TEMP:  87;                                

CORPUS NAS     CLOUDY    83  78  85 S3        30.06S HX  93           
6HR MIN TEMP:  82; 6HR MAX TEMP:  86;                                

*ROBSTOWN      MOCLDY    80  80 100 CALM      30.07S                  
6HR MIN TEMP:  80; 6HR MAX TEMP:  85;                                

ALICE          PTCLDY    76  75  97 NE7       30.06F                  
6HR MIN TEMP:  76; 6HR MAX TEMP:  83; 6HR PCP: TRACE;                

KINGSVILLE NAS PTCLDY    78  78 100 NE6       30.05F                  
6HR MIN TEMP:  78; 6HR MAX TEMP:  83;                                

COTULLA        CLOUDY    78  69  73 E10       30.09F                  
6HR MIN TEMP:  78; 6HR MAX TEMP:  85;                                

*FAITH RANCH   CLOUDY    79  68  69 E12       30.08F                  
LAREDO         MOCLDY    79  72  79 E9        30.06F                  
6HR MIN TEMP:  79; 6HR MAX TEMP:  84;                                

$$

TXZ248>255-250700-
DEEP SOUTH TEXAS
  
CITY           SKY/WX    TMP DP  RH WIND       PRES   REMARKS
BROWNSVILLE    PTCLDY    82  79  90 NE3       30.03R HX  92           
6HR MIN TEMP:  81; 6HR MAX TEMP:  88;                                

PORT ISABEL    MOCLDY    84  79  85 SE7       30.02S HX  96           
6HR MIN TEMP:  83; 6HR MAX TEMP:  88;                                

*SOUTH PADRE   NOT AVBL                                               
HARLINGEN

Return to Home page


Western Regional Climate Center, wrcc@dri.edu